[[{"header":{"parameterUnit":"m.s-1","parameterCategory":1,"la1":30.2991,"la2":30.254,"lo1":-89.0895,"lo2":-89.0444,"dy":0.0017,"dx":0.0017,"nx":28,"ny":28,"refTime":"2023-09-26T09:00:00:Z","depth":0,"parameterNumber":2,"parameterNumberName":"U-component_of_WINDS"},"data":[0,0,0,0,0,0,0,0,0,0,0,0,0,0,0,0,0,0,0,0,0,0,0,0,0,0,0,0,0,0,0,0,0,0,0,0,0,0,0,0,0,0,0,0,0,0,0,0,0,0,0,0,0,0,0,0,0,0,-4.5071,-4.5071,0,-4.5113,-4.5113,-4.5114,-4.4972,-4.4968,-4.4963,-4.4959,-4.5004,-4.5009,-4.5014,0,0,0,0,0,0,0,0,0,0,0,0,0,-4.4868,-4.4873,-4.5071,-4.5071,-4.5072,-4.5113,-4.5113,-4.5114,-4.4973,-4.4968,-4.4962,-4.4957,-4.5002,-4.5008,-4.5014,0,0,0,0,0,0,0,0,0,0,0,0,0,-4.4938,-4.4874,-4.5071,-4.5006,-4.5001,-4.5113,-4.5113,-4.5114,-4.4974,-4.4967,-4.4961,-4.4955,-4.5,-4.5008,-4.5015,-4.5192,0,0,-4.5039,-4.5042,0,0,0,0,0,0,0,0,-4.4934,-4.4946,-4.5015,-4.5011,-4.5005,-4.5031,-4.5058,-4.514,-4.4975,-4.4984,-4.4959,-4.4952,-4.5018,-4.5024,-4.5046,-4.5194,-4.5196,-4.504,-4.5044,-4.5048,-4.505,0,0,0,0,0,0,0,-4.493,-4.4943,-4.5087,-4.5016,-4.501,-4.4975,-4.4978,-4.5073,-4.5037,-4.4983,-4.4973,-4.498,-4.5014,-4.5039,-4.5046,-4.5196,-4.5039,-4.5046,-4.5051,-4.5054,-4.549,-4.5496,0,0,0,0,0,0,-4.4933,-4.494,-4.5086,-4.5089,-4.4953,-4.4984,-4.4987,-4.5029,-4.5035,-4.503,-4.4985,-4.4973,-4.5029,-4.5037,-4.5047,-4.5253,-4.5048,-4.5055,-4.5059,-4.5483,-4.5491,-4.5499,0,0,0,0,0,0,-4.4929,-4.4948,-4.5084,-4.5012,-4.5026,-4.4995,-4.5042,-4.5033,-4.5058,-4.5037,-4.503,-4.5017,-4.5024,-4.5036,-4.5156,-4.5253,-4.5058,-4.5065,-4.5475,-4.5485,-4.5495,-4.5668,0,0,0,0,0,0,-4.4924,-4.4947,-4.5014,-4.5014,-4.5031,-4.5194,-4.5048,-4.5039,-4.5071,-4.5056,-4.5065,-4.506,-4.502,-4.5146,-4.5164,-4.526,-4.5072,-4.5466,-4.5479,-4.5492,-4.5653,-4.5683,-4.5708,0,0,0,0,0,-4.4917,-4.5061,-4.5018,-4.5036,-4.5114,-4.5199,-4.5209,-4.5159,-4.508,-4.5146,-4.5133,-4.506,-4.5239,-4.5159,-4.5179,-4.5278,-4.546,-4.5476,-4.5491,-4.5641,-4.5677,-4.5707,0,0,0,0,0,0,-4.5074,-4.506,-4.5012,-4.516,-4.5182,-4.5175,-4.5258,-4.5199,-4.5244,-4.5228,-4.5164,-4.5168,-4.5299,-4.53,-4.5212,-4.5449,-4.5336,-4.5356,-4.5443,-4.5477,-4.5504,-4.5501,-4.5078,0,0,0,0,0,-4.5125,-4.5196,-4.518,-4.5313,-4.5326,-4.5291,-4.5326,-4.5286,-4.5306,-4.5315,-4.531,-4.5333,-4.5393,-4.5435,-4.549,-4.5652,-4.5652,-4.5731,-4.5758,-4.578,-4.5799,-4.5884,-4.5919,-4.555,-4.555,-4.5549,0,0,-4.5233,-4.5234,-4.5283,-4.5344,-4.5356,-4.5431,-4.5299,-4.5384,-4.5439,-4.5328,-4.5441,-4.5438,-4.5459,-4.5601,-4.5663,-4.5606,-4.59,-4.58,-4.5818,-4.5824,-4.5904,-4.5939,-4.597,-4.556,-4.5558,-4.5557,0,0,-4.5467,-4.5475,-4.5586,-4.56,-4.562,-4.5595,-4.5622,-4.5625,-4.5618,-4.5731,-4.5649,-4.5713,-4.582,-4.5838,-4.5861,-4.6102,-4.6036,-4.6121,-4.6264,-4.6348,-4.6377,-4.6402,-4.6488,-4.6519,-4.614,-4.614,-4.614,0,-4.5598,-4.5707,-4.565,-4.5741,-4.577,-4.5672,-4.5783,-4.58,-4.5838,-4.586,-4.5795,-4.5927,-4.5934,-4.6079,-4.6137,-4.6159,-4.6188,-4.612,-4.6377,-4.6402,-4.6425,-4.6506,-4.6538,-4.615,-4.6149,-4.6148,-4.6147,0,-4.5867,-4.5944,-4.6031,-4.6069,-4.6108,-4.6209,-4.6167,-4.6213,-4.6169,-4.6152,-4.6267,-4.6272,-4.6326,-4.6358,-4.6316,-4.6497,-4.646,-4.6388,-4.6273,-4.6472,-4.6546,-4.6577,-4.6165,-4.6161,-4.6158,-4.6156,0,0,-4.6202,-4.6206,-4.6239,-4.6254,-4.6269,-4.6327,-4.6423,-4.6475,-4.6516,-4.6545,-4.6624,-4.6716,-4.6649,-4.6675,-4.6635,-4.6708,-4.6898,-4.6626,-4.6626,-4.6677,-4.7097,-4.7151,-4.7188,-4.6854,-4.686,-4.6865,-4.7095,0,-4.6431,-4.6595,-4.6546,-4.6711,-4.6781,-4.6689,-4.6772,-4.679,-4.6776,-4.6833,-4.6817,-4.6884,-4.679,-4.6805,-4.6874,-4.6861,-4.6981,-4.6843,-4.6927,-4.6931,-4.6925,-4.7227,-4.7285,-4.7502,-4.7124,-4.7129,-4.7132,0,-4.6721,-4.6761,-4.6933,-4.6934,-4.6962,-4.7038,-4.7081,-4.7138,-4.7156,-4.714,-4.717,-4.7114,-4.7208,-4.7093,-4.7222,-4.7129,-4.716,-4.7159,-4.7166,-4.7172,-4.7044,-4.7241,-4.757,-4.7603,-4.7178,-4.7174,-4.7171,0,-4.6948,-4.7044,-4.7159,-4.7175,-4.718,-4.7235,-4.724,-4.7252,-4.7286,-4.7325,-4.7346,-4.7396,-4.7423,-4.7462,-4.7421,-4.7341,-4.7556,-4.7438,-4.7546,-4.7547,-4.7596,-4.7593,-4.7934,-4.7617,-4.7616,-4.7616,-4.7615,0,-4.7209,-4.7318,-4.726,-4.7331,-4.745,-4.7393,-4.7512,-4.7506,-4.7517,-4.7585,-4.7509,-4.7574,-4.7516,-4.7576,-4.7545,-4.7656,-4.7669,-4.7659,-4.7649,-4.7666,-4.7667,-4.7686,-4.767,-4.7624,-4.7622,-4.7621,-4.7619,0,-4.7482,-4.7448,-4.7567,-4.7562,-4.7563,-4.7651,-4.7646,-4.7711,-4.7691,-4.7778,-4.7795,-4.7764,-4.7831,-4.7794,-4.7863,-4.7842,-4.7986,-4.7956,-4.798,-4.7972,-4.8083,-4.8073,-4.8448,-4.8494,-4.8147,-4.815,-4.8153,0,-4.7651,-4.7733,-4.7736,-4.7776,-4.7785,-4.7851,-4.7885,-4.7832,-4.7871,-4.7897,-4.796,-4.802,-4.8065,-4.8176,-4.816,-4.8213,-4.8183,-4.8311,-4.819,-4.8204,-4.8185,-4.818,-4.8188,-4.8335,-4.8339,-4.8342,-4.8345,0,-4.7955,-4.7934,-4.7986,-4.8033,-4.8076,-4.8111,-4.8139,-4.8176,-4.8123,-4.8171,-4.8238,-4.8273,-4.8343,-4.8404,-4.8449,-4.8453,-4.8391,-4.8383,-4.8411,-4.8429,-4.8439,-4.8435,-4.8046,-4.8375,-4.8372,-4.837,-4.8368,-4.8367,-4.8181,-4.8249,-4.8261,-4.8322,-4.8337,-4.8365,-4.8426,-4.8413,-4.8468,-4.8521,-4.8486,-4.8565,-4.8581,-4.8634,-4.8647,-4.8708,-4.8657,-4.8698,-4.8708,-4.8719,-4.8734,-4.843,-4.8716,-4.8715,-4.8715,-4.8714,-4.8713,0,-4.848,-4.8484,-4.854,-4.8582,-4.863,-4.8566,-4.8593,-4.8638,-4.8708,-4.8728,-4.8774,-4.8851,-4.8909,-4.8898,-4.895,-4.9002,-4.8975,-4.9018,-4.9013,-4.9015,-4.8776,-4.8747,-4.9039,-4.9039,-4.9039,-4.9038,-4.9038,-4.9038,-4.8642,-4.8753,-4.8733,-4.8851,-4.8853,-4.893,-4.8951,-4.8976,-4.8991,-4.9081,-4.9129,-4.912,-4.9127,-4.918,-4.9231,-4.9225,-4.9249,-4.9302,-4.9287,-4.9064,-4.9032,-4.9001,-4.8973,-4.9308,-4.9308,-4.952,-4.9522,-4.9524]},{"header":{"parameterUnit":"m.s-1","parameterCategory":1,"la1":30.2991,"la2":30.254,"lo1":-89.0895,"lo2":-89.0444,"dy":0.0017,"dx":0.0017,"nx":28,"ny":28,"refTime":"2023-09-26T09:00:00:Z","depth":0,"parameterNumber":3,"parameterNumberName":"V-component_of_WINDS"},"data":[0,0,0,0,0,0,0,0,0,0,0,0,0,0,0,0,0,0,0,0,0,0,0,0,0,0,0,0,0,0,0,0,0,0,0,0,0,0,0,0,0,0,0,0,0,0,0,0,0,0,0,0,0,0,0,0,0,0,-3.0411,-3.0411,0,-3.0419,-3.0419,-3.0419,-3.0374,-3.0373,-3.0372,-3.0371,-3.0378,-3.038,-3.0381,0,0,0,0,0,0,0,0,0,0,0,0,0,-3.0355,-3.0357,-3.0411,-3.0411,-3.0411,-3.0418,-3.0419,-3.0419,-3.0375,-3.0373,-3.0371,-3.037,-3.0378,-3.0379,-3.0381,0,0,0,0,0,0,0,0,0,0,0,0,0,-3.0373,-3.0357,-3.0411,-3.039,-3.0388,-3.0418,-3.0419,-3.0419,-3.0375,-3.0373,-3.0371,-3.0369,-3.0377,-3.0379,-3.0381,-3.0432,0,0,-3.0388,-3.0389,0,0,0,0,0,0,0,0,-3.0372,-3.0375,-3.0393,-3.0391,-3.0389,-3.0393,-3.0402,-3.0423,-3.0375,-3.038,-3.0371,-3.0368,-3.0385,-3.0386,-3.0392,-3.0433,-3.0433,-3.0388,-3.0389,-3.039,-3.0391,0,0,0,0,0,0,0,-3.0371,-3.0374,-3.0414,-3.0393,-3.0391,-3.0379,-3.038,-3.0406,-3.0393,-3.0379,-3.0376,-3.0378,-3.0384,-3.039,-3.0392,-3.0433,-3.0388,-3.039,-3.0391,-3.0392,-3.0514,-3.0516,0,0,0,0,0,0,-3.0373,-3.0374,-3.0413,-3.0414,-3.0376,-3.0382,-3.0382,-3.0394,-3.0392,-3.039,-3.0379,-3.0376,-3.0387,-3.0389,-3.0392,-3.045,-3.039,-3.0392,-3.0393,-3.0512,-3.0514,-3.0516,0,0,0,0,0,0,-3.0372,-3.0377,-3.0413,-3.0393,-3.0397,-3.0385,-3.0398,-3.0395,-3.0402,-3.0392,-3.039,-3.0388,-3.0386,-3.0389,-3.0422,-3.0449,-3.0393,-3.0395,-3.0509,-3.0512,-3.0515,-3.0567,0,0,0,0,0,0,-3.037,-3.0377,-3.0396,-3.0394,-3.0398,-3.0444,-3.04,-3.0397,-3.0405,-3.0401,-3.04,-3.0398,-3.0385,-3.0419,-3.0424,-3.0451,-3.0396,-3.0507,-3.0511,-3.0514,-3.0563,-3.0571,-3.0579,0,0,0,0,0,-3.0368,-3.0411,-3.0398,-3.0403,-3.0422,-3.0446,-3.0448,-3.0431,-3.0408,-3.0427,-3.0421,-3.0398,-3.0446,-3.0423,-3.0428,-3.0456,-3.0505,-3.051,-3.0514,-3.0559,-3.057,-3.0578,0,0,0,0,0,0,-3.0417,-3.041,-3.0395,-3.0438,-3.0443,-3.0438,-3.0462,-3.0443,-3.0455,-3.045,-3.0429,-3.0429,-3.0465,-3.0464,-3.0439,-3.0504,-3.0471,-3.0477,-3.0504,-3.0514,-3.0521,-3.052,-3.0398,0,0,0,0,0,-3.0433,-3.0453,-3.0445,-3.0484,-3.0487,-3.0474,-3.0484,-3.047,-3.0474,-3.0476,-3.0472,-3.0477,-3.0492,-3.0503,-3.0517,-3.0562,-3.0561,-3.0584,-3.0592,-3.0599,-3.0604,-3.0626,-3.0636,-3.0531,-3.0531,-3.0531,0,0,-3.0466,-3.0464,-3.0478,-3.0494,-3.0496,-3.0516,-3.0476,-3.05,-3.0514,-3.0479,-3.051,-3.0508,-3.0511,-3.055,-3.0567,-3.055,-3.0632,-3.0605,-3.061,-3.0611,-3.0631,-3.0641,-3.065,-3.0534,-3.0533,-3.0533,0,0,-3.0535,-3.0537,-3.0568,-3.0571,-3.0574,-3.0565,-3.0573,-3.057,-3.0567,-3.0598,-3.0572,-3.0588,-3.0616,-3.0619,-3.0624,-3.0693,-3.0672,-3.0698,-3.074,-3.0761,-3.077,-3.0777,-3.08,-3.0809,-3.0703,-3.0704,-3.0704,0,-3.0576,-3.0605,-3.0587,-3.0611,-3.0618,-3.0588,-3.0618,-3.0622,-3.063,-3.0635,-3.0616,-3.0649,-3.0649,-3.0687,-3.0704,-3.071,-3.0717,-3.0698,-3.077,-3.0777,-3.0783,-3.0805,-3.0814,-3.0707,-3.0706,-3.0706,-3.0706,0,-3.0654,-3.0674,-3.0699,-3.0707,-3.0716,-3.0744,-3.0729,-3.0741,-3.0727,-3.072,-3.075,-3.0749,-3.0762,-3.077,-3.0757,-3.0806,-3.0795,-3.0774,-3.074,-3.0797,-3.0817,-3.0825,-3.0711,-3.071,-3.0709,-3.0708,0,0,-3.0755,-3.075,-3.076,-3.0762,-3.0763,-3.0778,-3.0804,-3.0816,-3.0825,-3.0832,-3.0852,-3.0875,-3.0855,-3.0861,-3.0847,-3.0867,-3.0919,-3.0842,-3.0842,-3.0855,-3.0972,-3.0987,-3.0997,-3.0906,-3.0907,-3.0909,-3.0971,0,-3.0821,-3.0865,-3.0848,-3.0893,-3.0911,-3.0881,-3.0903,-3.0906,-3.0899,-3.0913,-3.0906,-3.0923,-3.0895,-3.0898,-3.0916,-3.0909,-3.0942,-3.0905,-3.0923,-3.0924,-3.0922,-3.1008,-3.1025,-3.1084,-3.0979,-3.098,-3.0981,0,-3.0905,-3.0914,-3.096,-3.0955,-3.0962,-3.0983,-3.0991,-3.1005,-3.1007,-3.1001,-3.1007,-3.0988,-3.1012,-3.0979,-3.1011,-3.0986,-3.0993,-3.099,-3.0992,-3.0992,-3.0956,-3.1009,-3.1102,-3.1111,-3.0994,-3.0993,-3.0992,0,-3.0972,-3.0995,-3.1025,-3.1028,-3.1024,-3.1039,-3.1038,-3.1038,-3.1045,-3.1053,-3.1057,-3.1068,-3.1074,-3.1082,-3.1067,-3.1044,-3.11,-3.1066,-3.1095,-3.1095,-3.1107,-3.1107,-3.1201,-3.1114,-3.1114,-3.1114,-3.1114,0,-3.1047,-3.1076,-3.1055,-3.1073,-3.1104,-3.1085,-3.1116,-3.1112,-3.1111,-3.1128,-3.1104,-3.112,-3.1099,-3.1113,-3.1102,-3.1129,-3.1132,-3.1127,-3.1123,-3.1128,-3.1129,-3.1132,-3.1127,-3.1116,-3.1116,-3.1115,-3.1115,0,-3.1127,-3.1114,-3.1144,-3.1138,-3.1137,-3.116,-3.1154,-3.117,-3.1162,-3.1183,-3.1187,-3.1174,-3.1188,-3.1174,-3.1189,-3.1181,-3.1217,-3.1208,-3.1216,-3.1213,-3.1242,-3.1239,-3.1341,-3.1353,-3.1259,-3.126,-3.1261,0,-3.1176,-3.1197,-3.1192,-3.1201,-3.1201,-3.1217,-3.1224,-3.1205,-3.1214,-3.1216,-3.1232,-3.1245,-3.1254,-3.1279,-3.127,-3.1281,-3.1271,-3.1306,-3.1272,-3.1276,-3.127,-3.1268,-3.1269,-3.1313,-3.1314,-3.1315,-3.1315,0,-3.1262,-3.1254,-3.1266,-3.1274,-3.1283,-3.129,-3.1294,-3.1303,-3.1283,-3.1294,-3.1308,-3.1315,-3.1329,-3.1342,-3.1349,-3.1348,-3.1328,-3.1326,-3.1333,-3.1338,-3.1341,-3.1338,-3.1233,-3.1324,-3.1323,-3.1322,-3.1322,-3.1321,-3.1327,-3.1343,-3.1342,-3.1355,-3.1356,-3.136,-3.1374,-3.1367,-3.1379,-3.1389,-3.1377,-3.1395,-3.1394,-3.1402,-3.1403,-3.1416,-3.1401,-3.1412,-3.1414,-3.1417,-3.142,-3.134,-3.1418,-3.1418,-3.1417,-3.1417,-3.1417,0,-3.141,-3.1408,-3.142,-3.1426,-3.1436,-3.1416,-3.1419,-3.1429,-3.1444,-3.1446,-3.1455,-3.1471,-3.1482,-3.1475,-3.1484,-3.1496,-3.1487,-3.1499,-3.1498,-3.1497,-3.1434,-3.1426,-3.1506,-3.1506,-3.1506,-3.1506,-3.1506,-3.1506,-3.1455,-3.1482,-3.1474,-3.15,-3.1497,-3.1514,-3.1517,-3.152,-3.1521,-3.154,-3.1549,-3.1544,-3.1541,-3.155,-3.156,-3.1557,-3.1561,-3.1576,-3.157,-3.1511,-3.1502,-3.1494,-3.1486,-3.1578,-3.1578,-3.1632,-3.1633,-3.1633]}]]